GFSSW_250_spd_333.txt.gz
Wind_Speed
98 99 95 92 87 86 78 84 85 84 80 76 72 69 67 65 62 59 55 52 45 44 41 37 36 35 34 32 30 27 26 24 26 26 24 25 23 24 23 23 24 24 25 26 26
96 101 96 96 94 92 87 84 85 86 84 80 77 75 72 70 67 63 58 55 52 47 44 39 39 38 37 35 33 29 29 28 30 28 28 26 26 27 26 22 22 24 23 24 21
99 100 103 103 95 94 88 89 88 89 90 86 82 80 76 75 71 68 64 60 58 53 49 46 44 42 40 39 36 33 33 33 33 32 32 30 30 29 29 28 29 27 26 25 23
100 103 103 104 98 99 96 93 92 92 91 90 86 86 82 78 76 73 71 66 62 59 54 52 51 47 44 43 40 37 36 37 37 36 35 32 29 29 30 30 31 29 26 24 24
86 104 107 107 108 104 104 102 94 94 91 91 93 88 87 84 81 78 75 72 69 65 61 58 55 54 48 45 44 42 39 40 38 39 37 32 30 30 31 30 33 30 30 27 29
65 85 107 109 109 112 107 106 104 98 97 94 93 95 91 89 86 83 80 77 74 69 66 64 60 57 53 49 48 48 45 41 41 41 40 36 34 33 33 32 33 34 33 31 32
41 66 89 110 111 109 113 107 105 104 104 99 96 93 92 96 91 88 86 83 79 76 71 68 68 59 61 53 52 50 45 43 44 43 44 40 38 35 38 38 33 36 35 36 37
52 48 67 88 111 114 112 112 113 107 101 103 105 97 96 95 97 94 91 88 84 81 77 74 72 69 66 62 57 56 51 49 44 41 43 41 41 39 39 40 38 38 38 40 41
74 58 53 67 94 111 118 114 121 115 114 107 105 106 99 96 99 97 95 94 90 87 83 80 77 73 71 67 64 62 59 55 52 48 45 42 43 41 39 39 40 42 43 42 45
82 72 60 58 72 94 113 122 118 122 120 117 116 109 104 107 100 98 97 98 95 92 89 85 80 78 74 73 72 71 65 58 55 51 49 47 47 40 41 44 42 42 43 41 42
93 88 79 59 61 79 98 115 120 120 118 121 126 124 107 108 110 104 100 97 98 97 92 90 84 79 84 80 75 73 66 64 63 58 53 49 52 46 41 45 46 43 42 43 45
96 92 89 83 72 71 83 96 115 123 130 125 123 124 119 115 112 115 106 102 99 96 97 93 86 88 88 83 77 76 72 69 68 66 60 56 53 49 42 46 46 43 46 48 49
102 99 98 92 82 74 72 88 104 123 130 135 128 124 122 123 117 109 113 108 104 101 97 95 93 94 90 86 83 80 78 78 74 71 65 62 60 57 49 46 47 49 49 50 53
109 106 108 105 99 85 73 76 95 115 135 135 137 126 126 126 122 123 116 111 112 106 104 101 95 94 92 89 88 86 84 82 80 76 70 67 61 63 59 55 55 54 53 54 56
118 116 114 113 105 104 89 85 88 114 134 137 135 137 132 122 120 124 123 125 114 111 107 101 101 98 95 94 95 90 88 86 84 81 75 69 66 64 64 60 61 61 63 62 59
128 126 122 120 113 109 102 100 101 114 131 126 135 134 137 133 124 123 123 122 121 119 109 104 103 101 96 94 93 93 92 91 87 83 77 73 71 63 67 66 68 67 67 65 62
137 134 132 127 115 117 117 115 115 116 119 121 120 130 131 135 137 131 122 120 122 122 115 111 107 103 101 100 97 94 95 93 91 85 78 75 77 67 71 73 73 71 67 66 65
137 135 131 129 122 123 124 124 123 116 110 108 116 123 134 133 136 136 137 129 125 123 121 117 115 106 104 102 100 101 101 100 96 91 87 83 82 76 74 73 76 74 70 67 66
133 134 133 123 121 127 123 128 117 112 100 102 116 127 130 138 136 138 134 130 128 123 119 116 115 111 110 110 109 104 98 100 99 94 88 85 81 80 79 79 76 73 72 70 69
121 125 126 120 120 125 129 123 116 110 108 113 114 121 124 126 132 133 133 130 125 123 120 116 118 113 113 114 112 108 106 105 101 96 91 83 79 76 79 78 75 74 76 76 72
113 118 116 117 121 126 128 120 112 104 112 106 116 113 117 124 123 131 132 128 123 123 126 122 119 116 116 114 110 110 108 105 103 99 93 88 84 81 82 81 80 79 78 77 75
107 110 110 116 119 122 123 115 109 111 121 111 114 114 113 119 123 123 130 126 127 126 122 121 121 120 117 115 114 111 106 105 104 100 98 92 84 83 82 85 87 85 82 81 79
99 105 111 114 113 118 119 116 112 117 115 123 106 113 108 116 125 123 125 130 130 125 121 117 121 121 120 118 115 113 110 107 102 99 96 95 84 86 87 88 87 88 86 82 80
93 103 105 110 106 111 113 112 110 114 118 121 112 110 117 117 120 126 126 125 130 129 123 117 117 119 121 118 114 111 108 108 106 103 97 95 91 90 89 90 90 87 83 82 82
89 93 96 98 103 106 108 111 114 113 119 111 122 114 113 116 118 123 130 126 125 126 129 124 116 114 116 121 121 113 109 110 108 104 103 95 94 93 93 94 92 86 83 82 83
81 85 88 92 99 105 109 115 105 107 114 112 121 111 110 116 118 111 122 125 123 120 123 127 121 113 114 112 112 111 111 112 109 108 105 100 94 92 94 92 90 90 89 88 86
75 80 84 88 94 99 105 108 105 104 106 111 113 108 111 117 114 115 117 130 131 125 121 119 125 123 118 112 110 109 100 103 103 102 101 101 96 104 103 99 96 92 88 86 86

GFSSW_250_spd_336.txt.gz
Wind_Speed
79 87 93 91 92 88 87 86 83 81 81 78 74 72 70 67 64 62 57 54 51 50 48 45 41 39 35 32 32 31 31 27 23 24 21 21 20 20 20 20 23 21 20 23 23
72 86 92 95 96 96 89 88 86 85 84 79 80 76 74 72 69 66 62 59 56 55 50 47 41 39 38 36 34 35 34 29 25 25 24 24 23 23 23 25 25 24 24 25 24
61 74 89 92 97 99 97 89 89 88 88 78 84 82 78 77 74 70 68 64 62 59 56 53 48 44 40 38 38 37 34 32 29 29 28 28 27 26 27 27 25 25 26 25 23
18 66 81 94 95 98 101 97 93 90 92 83 87 86 83 80 79 75 73 69 67 64 60 58 54 48 46 42 40 41 38 35 32 32 32 31 31 31 28 27 26 26 26 27 26
17 22 58 88 96 98 102 102 101 101 93 91 92 89 85 85 83 81 78 75 72 69 65 61 59 54 50 47 44 43 42 40 38 35 34 35 33 33 31 29 29 28 28 30 30
42 32 23 57 88 100 102 104 103 105 101 99 94 92 88 89 89 84 83 80 77 74 70 67 64 61 55 53 49 48 47 44 44 40 38 37 36 36 34 35 34 33 30 32 32
65 39 36 34 42 85 103 104 105 106 107 104 100 95 94 93 90 90 88 85 82 80 76 73 70 66 63 58 54 54 49 50 46 46 44 40 41 40 40 39 38 37 35 34 34
72 60 55 42 46 41 72 105 106 105 110 109 105 105 99 95 93 90 92 91 86 84 82 79 75 71 68 63 62 57 54 52 54 47 47 42 44 39 39 38 38 36 37 35 35
81 72 66 57 53 58 44 66 107 110 112 114 109 106 107 104 100 94 91 93 91 86 87 83 80 76 72 68 66 62 59 59 59 53 49 47 47 42 40 38 37 39 37 35 40
88 85 84 80 66 60 64 55 73 111 113 112 112 109 108 108 110 108 99 93 93 91 90 86 84 80 76 74 71 71 66 65 63 60 53 52 53 47 45 44 43 42 41 42 41
93 91 90 89 88 85 71 58 55 66 114 118 113 115 117 114 113 110 110 105 97 87 89 91 87 82 85 82 78 75 73 68 67 65 61 59 57 52 46 46 48 47 44 44 41
102 100 99 98 95 96 88 64 68 60 78 110 125 121 116 121 118 115 113 112 107 97 96 89 83 92 90 87 81 78 75 74 72 70 66 64 62 59 50 46 47 48 47 49 49
109 108 104 104 101 100 97 90 83 75 71 84 110 125 121 117 123 123 115 116 113 111 104 97 89 92 93 91 85 83 79 78 78 75 72 68 65 64 58 52 50 50 49 48 48
114 113 112 111 110 104 100 99 97 95 91 75 87 110 124 121 120 117 116 116 112 110 110 106 99 95 91 88 88 86 86 84 81 80 75 73 66 68 64 58 58 58 56 54 55
122 120 116 118 112 109 103 106 107 108 103 77 75 88 107 124 118 121 121 120 116 114 114 104 103 105 101 95 93 87 90 88 86 84 79 74 72 69 71 67 64 62 61 59 57
130 128 124 122 117 111 110 114 116 124 110 82 68 78 86 108 123 124 125 121 121 119 118 114 110 106 106 104 98 91 91 89 88 85 82 78 77 68 75 73 68 66 64 63 61
142 137 135 131 123 120 119 125 133 132 110 92 76 67 81 90 115 126 125 125 121 124 121 118 116 112 108 109 107 97 96 94 92 87 78 80 82 68 77 77 73 69 66 64 64
150 149 144 141 133 130 132 138 145 129 114 89 90 81 83 91 96 116 132 129 130 124 121 121 118 114 113 110 108 108 104 98 97 91 84 85 80 73 76 77 75 71 68 68 70
158 157 155 148 142 139 144 148 145 133 112 102 92 97 88 90 93 94 117 127 126 130 124 120 117 118 116 115 115 111 106 105 105 101 93 90 82 80 78 79 79 78 76 75 75
149 152 150 149 149 150 154 153 152 132 123 109 99 101 95 89 97 86 100 114 119 122 128 127 120 117 119 121 119 114 111 110 107 100 93 87 81 78 80 85 84 83 82 79 76
125 134 124 135 143 152 156 148 145 130 128 122 106 103 104 95 97 96 87 103 114 117 126 128 131 121 116 115 115 116 115 114 110 106 98 93 89 86 85 84 83 83 83 79 77
113 114 111 122 133 135 136 132 130 122 129 125 114 107 101 94 100 99 89 94 109 115 120 128 128 132 126 120 115 114 114 114 113 107 105 102 93 91 87 87 86 87 86 84 80
104 104 112 120 124 122 119 122 119 117 119 124 121 112 103 100 105 106 93 98 107 117 118 123 132 126 131 134 126 116 112 112 111 109 110 107 91 92 90 89 89 90 90 87 84
95 98 108 114 111 115 117 116 114 110 110 120 118 111 107 105 104 104 96 100 104 112 121 125 128 129 126 125 127 128 122 117 116 114 108 107 97 97 96 93 92 90 89 86 83
86 90 92 98 100 108 113 110 107 108 108 112 116 114 110 103 103 104 103 105 105 107 118 123 125 123 126 121 118 120 120 120 116 111 115 105 104 99 98 98 95 91 88 84 82
79 82 88 90 94 103 107 106 103 108 109 105 110 110 108 104 106 100 99 104 107 107 108 119 120 119 120 123 120 116 116 115 116 112 112 106 100 98 98 93 89 87 87 86 86
75 80 80 85 92 97 91 94 98 103 103 100 102 111 107 104 104 102 104 104 108 108 108 109 118 119 118 115 121 123 115 113 110 107 103 104 96 99 98 97 95 92 90 86 84

GFSSW_250_spd_339.txt.gz
Wind_Speed
40 56 66 82 86 83 84 87 85 86 81 79 76 74 70 68 65 62 59 56 54 52 50 47 43 41 37 33 36 36 32 29 26 24 21 22 23 18 15 14 16 18 18 18 17
15 39 58 75 87 83 89 91 89 86 86 83 80 78 75 72 69 66 63 60 58 56 54 52 47 46 46 38 35 37 35 32 30 28 24 23 23 21 18 16 17 18 18 19 19
19 18 40 59 80 86 87 94 93 89 87 87 83 82 79 77 75 71 69 65 62 59 57 55 52 48 47 43 39 37 38 34 33 33 29 26 26 24 22 21 20 20 19 18 19
31 24 19 48 68 84 89 92 90 97 92 86 87 86 83 81 79 75 74 71 68 65 61 60 57 52 50 47 43 41 37 36 36 34 31 30 28 26 25 23 21 22 22 19 21
38 37 24 16 45 69 88 92 95 97 97 93 86 87 86 85 82 79 79 77 73 71 67 65 63 59 56 52 49 45 42 36 40 37 36 34 32 30 28 26 26 25 27 26 26
39 47 38 29 23 37 73 91 92 97 99 97 94 90 88 88 86 83 82 81 80 76 73 70 67 63 60 57 54 52 45 44 42 39 39 36 36 36 31 29 27 29 29 31 29
53 53 45 38 35 34 37 70 95 94 98 101 99 99 95 93 88 86 86 83 84 81 78 75 72 68 64 62 57 56 51 47 47 45 42 40 39 40 37 32 32 31 30 29 29
60 62 56 48 46 42 39 40 60 101 99 99 103 101 101 99 91 92 90 86 86 86 83 80 77 74 69 66 62 62 57 52 52 51 48 42 45 39 38 36 35 33 32 30 30
69 67 62 66 56 54 51 47 47 52 88 102 96 102 103 103 101 101 96 92 89 88 85 84 82 78 76 70 67 66 62 61 59 54 51 47 48 44 40 39 38 39 38 37 36
76 75 75 76 70 69 60 59 51 50 57 55 71 102 97 103 109 108 103 100 94 92 91 84 83 79 79 78 73 73 70 66 64 61 55 53 53 47 46 43 43 43 44 44 40
83 83 82 83 82 73 79 64 61 61 56 56 65 83 104 105 106 110 108 106 103 99 93 88 85 80 87 86 81 78 75 71 70 66 59 57 58 56 50 47 47 47 47 45 43
92 91 90 90 89 89 82 78 76 72 69 67 66 56 66 102 109 106 112 112 108 107 104 96 87 87 88 85 83 81 78 76 73 71 66 62 59 61 54 53 52 50 49 47 45
99 97 97 95 96 95 91 91 90 90 78 72 69 61 57 78 104 112 108 113 112 109 107 106 97 98 94 87 82 83 80 82 80 76 73 69 64 65 60 56 56 54 51 50 48
107 105 104 105 102 101 99 99 104 102 98 81 77 73 66 66 70 97 115 113 112 112 115 110 104 105 102 96 91 84 84 86 83 82 76 74 68 68 64 62 61 59 57 56 53
114 113 113 112 108 109 108 112 111 114 112 85 77 73 63 64 64 81 104 120 118 116 115 112 107 108 107 102 102 95 89 85 84 82 81 74 72 68 67 64 64 63 63 62 59
126 121 121 121 117 113 114 119 122 126 114 86 85 81 78 70 62 70 87 110 121 121 116 114 112 111 110 107 105 103 102 95 91 88 78 73 72 60 71 72 69 67 66 65 64
138 136 134 133 126 125 126 127 136 136 109 91 84 85 80 78 78 72 78 88 104 120 120 112 115 110 112 112 110 105 105 107 98 96 88 81 78 60 71 76 74 71 69 68 67
149 148 144 139 138 135 137 141 148 136 124 91 84 88 95 90 88 79 76 83 84 95 113 122 115 111 112 112 113 114 112 110 107 100 92 88 80 70 71 78 78 74 71 69 68
158 157 155 148 146 145 148 156 150 142 128 120 102 100 104 97 94 91 85 78 79 77 92 115 120 116 112 113 113 115 115 113 112 106 99 93 80 80 76 75 80 80 76 73 71
163 165 162 154 154 155 160 159 154 151 132 131 113 106 109 100 103 99 88 77 78 81 80 94 112 121 121 118 120 117 116 118 114 107 104 93 86 83 82 81 83 82 81 77 76
153 157 146 160 165 169 171 165 158 152 146 138 131 112 116 113 104 102 93 88 85 86 86 91 93 111 125 124 120 120 121 118 117 114 108 100 94 86 87 88 93 90 85 83 82
127 128 130 147 162 171 176 170 158 153 154 144 140 138 130 120 113 106 97 92 91 96 94 91 96 96 110 127 126 123 120 120 121 116 115 113 100 91 90 91 95 94 92 89 86
108 105 121 132 137 144 147 150 152 148 149 147 144 143 134 122 114 107 103 101 104 102 102 97 100 100 97 118 131 129 124 122 119 119 120 118 100 95 95 96 96 96 94 92 89
93 95 110 115 119 126 127 130 133 125 132 143 134 135 139 131 115 124 109 111 114 109 112 110 106 102 102 97 110 127 129 129 126 123 117 115 101 102 101 100 102 102 99 97 95
84 87 95 98 104 112 116 116 122 121 119 126 121 116 121 129 126 113 117 120 121 118 120 118 109 101 103 99 98 113 125 130 130 125 125 111 111 105 104 106 104 101 98 97 95
76 82 84 84 93 94 101 104 106 109 114 120 115 106 111 119 125 125 125 124 124 122 120 118 115 107 103 103 103 102 116 125 128 123 125 118 112 105 105 103 101 100 99 97 93
72 74 75 78 81 87 90 94 101 108 109 115 115 111 106 109 119 121 123 122 122 124 121 117 111 108 104 99 97 104 102 111 116 119 118 121 104 112 107 106 106 103 96 96 98

GFSSW_250_spd_342.txt.gz
Wind_Speed
25 26 29 51 57 75 83 84 76 81 81 79 76 71 70 68 66 62 59 57 57 54 51 48 45 41 39 36 34 33 31 26 27 26 28 22 20 20 21 17 13 11 11 12 10
32 25 29 39 55 66 85 86 83 80 82 82 79 77 73 73 70 67 65 61 59 58 55 53 50 46 43 39 37 36 33 31 31 30 32 29 25 22 19 17 14 13 12 12 12
32 31 29 21 46 58 75 89 86 83 84 85 82 80 80 76 75 71 70 67 65 62 60 57 54 51 48 44 41 41 39 33 34 32 33 33 29 26 24 22 17 15 15 14 12
44 30 34 28 27 49 62 84 89 88 86 85 87 82 80 80 79 77 75 71 69 67 66 62 60 57 54 51 47 45 44 37 36 36 35 34 32 28 27 25 20 17 16 17 16
50 45 41 40 23 24 43 65 89 91 91 89 89 90 82 80 83 80 79 77 74 71 70 66 64 61 59 55 52 49 45 42 38 36 35 36 32 32 29 28 24 20 18 18 18
56 52 48 36 41 29 33 40 74 93 91 93 89 93 94 84 82 82 82 82 79 76 74 72 68 65 62 59 56 55 50 48 45 42 39 36 33 34 31 31 28 23 21 20 19
62 56 52 48 45 42 36 39 45 79 92 94 94 96 96 97 87 84 85 84 83 82 79 77 73 70 68 65 61 60 56 53 51 47 45 41 39 38 32 32 27 27 27 25 21
65 62 58 51 47 49 39 44 42 35 73 94 94 97 95 97 95 90 86 87 87 86 83 80 78 75 73 70 67 65 62 58 58 53 50 45 45 39 37 35 32 30 29 27 26
69 67 66 63 60 57 50 52 51 48 50 75 90 95 95 97 98 97 96 90 88 86 86 85 83 80 77 75 73 69 67 66 64 59 55 50 51 44 42 40 36 35 34 33 33
77 73 72 71 69 61 60 58 64 52 51 42 52 77 90 90 97 99 98 98 93 90 87 86 85 82 80 79 78 77 75 71 68 65 60 56 57 50 45 44 42 41 37 36 37
78 78 76 76 74 73 68 64 59 64 54 54 49 66 58 97 93 100 103 102 99 97 93 89 86 81 87 87 83 81 77 74 73 69 66 63 60 56 52 49 47 45 44 42 42
84 83 81 79 78 76 71 68 67 65 66 59 57 51 63 64 96 101 94 97 107 102 100 98 91 91 91 88 84 83 81 80 78 75 70 68 63 62 56 55 53 51 50 49 47
89 88 86 86 84 80 79 77 76 77 71 69 70 57 62 54 61 77 103 105 101 102 107 102 99 102 96 94 88 84 83 84 83 82 77 73 68 67 62 58 58 55 54 54 52
93 92 91 91 89 87 85 91 89 88 80 73 75 67 66 62 61 66 74 77 82 101 105 103 103 105 101 98 96 91 90 91 87 82 76 75 69 70 67 59 61 61 59 58 57
102 101 100 99 99 96 97 102 100 98 91 79 71 74 76 69 61 65 70 73 75 81 113 105 103 108 109 105 106 100 98 94 93 88 81 75 70 67 71 65 62 66 65 62 61
117 115 114 112 107 106 109 109 112 114 96 78 76 73 72 80 73 75 73 68 69 72 74 103 109 105 104 105 111 108 104 101 100 98 89 81 82 66 68 67 69 67 69 69 67
126 125 126 125 119 119 121 124 127 128 98 85 76 83 83 85 85 77 82 76 69 67 62 78 109 115 108 105 108 108 108 109 106 103 90 90 87 71 71 75 74 68 69 71 72
135 135 134 133 131 132 133 138 141 124 108 97 94 98 97 94 88 77 87 82 72 68 67 65 75 99 107 111 109 108 110 114 113 108 100 100 93 77 75 78 79 76 72 69 70
146 145 144 139 141 141 144 151 147 127 116 113 114 113 108 105 99 98 88 89 79 76 76 67 73 79 92 106 116 115 117 114 117 115 111 104 91 86 84 79 82 83 79 76 73
156 155 152 148 149 152 155 155 148 137 126 125 127 119 111 113 114 108 98 90 89 83 85 77 76 77 86 96 114 120 120 120 118 117 114 105 97 89 89 89 87 89 87 83 77
155 161 157 158 159 165 166 158 153 144 136 135 130 126 120 121 119 119 107 99 98 90 93 93 88 81 83 91 93 106 119 124 124 120 119 114 106 98 96 93 90 91 93 90 85
138 144 149 163 170 173 171 163 155 154 146 141 138 136 130 127 126 122 114 100 99 102 105 98 96 94 88 90 95 93 100 118 125 124 121 117 111 104 100 99 98 95 98 96 93
121 128 132 145 157 161 165 166 165 160 155 148 146 141 136 133 134 130 121 112 112 110 107 106 108 100 96 86 94 95 92 94 105 122 125 126 109 106 104 103 104 103 101 100 98
104 111 120 126 130 140 143 149 157 154 152 147 150 149 145 143 140 137 129 121 119 115 113 116 115 108 100 83 89 92 90 89 95 114 118 125 113 115 112 109 107 104 104 103 99
83 90 95 103 111 120 126 129 135 138 141 150 152 149 154 153 149 146 137 129 127 122 121 123 118 113 99 98 89 91 97 96 94 94 110 109 116 107 111 115 116 111 108 106 104
78 78 84 88 96 103 104 110 122 124 126 129 130 138 147 151 147 150 142 137 133 129 126 126 122 117 112 108 104 97 96 99 96 96 95 96 101 107 107 113 116 113 109 108 108
70 75 75 79 86 92 91 94 100 106 114 120 126 129 127 133 140 145 147 145 142 139 131 131 128 123 121 115 114 110 93 96 91 95 92 93 82 96 111 112 112 113 111 106 103